sat.trackr.live / text

‹ back to catalog

STARLINK-2092

NORAD 47373 · 2021-005AA

PAYLOAD ACTIVE UNKNOWN

§ Identity

Operator
Country
US
Launch date
2021-01-20
Launch site
AFETR
Launch vehicle
Mass (kg)
RCS (m²)

Purposes: comms

External: N2YO · Heavens-Above · Gunter

§ Orbital elements

Epoch: 2026-05-25T00:34:14.609280Z

Period
94.01 min
Inclination
53.1606°
Eccentricity
0.0001197
Mean motion
15.31704595 rev/d
Perigee alt
469.9 km
Apogee alt
471.5 km
Semi-major
6,848.9 km
B*
1.8691e-4
RAAN
67.4602°
Arg perigee
87.2002°
Mean anomaly
272.9137°
Rev number
29,472

§ Raw data

STARLINK-20921 47373U 21005AA  26145.02378020  .00005440  00000+0  18691-3 0  99922 47373  53.1606  67.4602 0001197  87.2002 272.9137 15.31704595294724

JSON: /api/v1/satellites/47373 · /tle

For live sub-satellite position, see the globe view (requires WebGL).

§ Visibility from observer

Set your observer location to see the next 7 days of passes ≥ 10°. The values pass through the URL so the page stays shareable.

No JS? Fill the form by hand. The geolocation button needs JavaScript.